• în Republica Moldova
  • Lista ţărilor
  • Pe 7 zile
  • Temperatura apei
  • Hartă satelitară
  • Meteo pe hartă
  • Widget-uri
  • user-avatar
    Intrare

    Meteo pe oră la Fier

    Astăzi, 25 Iulie, Marţi

    Timp Temperatura Precipitaţii Vânt Presiune Umiditate
    00:00 +27°C° 0 mm 6 m/s 753 mmHg 51%
    01:00 +27°C° 0 mm 6 m/s 753 mmHg 53%
    02:00 +26°C° 0 mm 6 m/s 753 mmHg 56%
    03:00 +25°C° 0 mm 5 m/s 753 mmHg 59%
    04:00 +25°C° 0 mm 4 m/s 753 mmHg 62%
    05:00 +26°C° 0 mm 4 m/s 753 mmHg 60%
    06:00 +27°C° 0 mm 4 m/s 752 mmHg 59%
    07:00 +29°C° 0 mm 4 m/s 752 mmHg 57%
    08:00 +30°C° 0 mm 4 m/s 752 mmHg 52%
    09:00 +32°C° 0 mm 4 m/s 752 mmHg 47%
    10:00 +33°C° 0 mm 4 m/s 753 mmHg 43%
    11:00 +34°C° 0 mm 4 m/s 752 mmHg 39%
    12:00 +35°C° 0 mm 4 m/s 752 mmHg 36%
    13:00 +35°C° 0 mm 5 m/s 752 mmHg 33%
    14:00 +35°C° 0 mm 5 m/s 752 mmHg 34%
    15:00 +34°C° 0 mm 5 m/s 752 mmHg 35%
    16:00 +34°C° 0 mm 5 m/s 751 mmHg 35%
    17:00 +32°C° 0 mm 5 m/s 751 mmHg 42%
    18:00 +29°C° 0 mm 4 m/s 752 mmHg 48%
    19:00 +27°C° 0 mm 4 m/s 752 mmHg 55%
    20:00 +26°C° 0 mm 4 m/s 752 mmHg 58%
    21:00 +26°C° 0 mm 4 m/s 752 mmHg 60%
    22:00 +25°C° 0 mm 4 m/s 753 mmHg 63%
    23:00 +23°C° 0 mm 4 m/s 753 mmHg 64%

    Mâine, 26 Iulie, Miercuri

    Timp Temperatura Precipitaţii Vânt Presiune Umiditate
    00:00 +23°C° 0 mm 4 m/s 753 mmHg 64%
    01:00 +22°C° 0 mm 4 m/s 753 mmHg 65%
    02:00 +22°C° 0 mm 4 m/s 752 mmHg 66%
    03:00 +22°C° 0 mm 4 m/s 752 mmHg 67%
    04:00 +21°C° 0 mm 4 m/s 752 mmHg 68%
    05:00 +23°C° 0 mm 4 m/s 752 mmHg 65%
    06:00 +26°C° 0 mm 4 m/s 752 mmHg 62%
    07:00 +27°C° 0 mm 3 m/s 752 mmHg 60%
    08:00 +28°C° 0 mm 4 m/s 752 mmHg 55%
    09:00 +30°C° 0 mm 4 m/s 752 mmHg 50%
    10:00 +32°C° 0 mm 4 m/s 752 mmHg 46%
    11:00 +32°C° 0,1 mm 4 m/s 752 mmHg 45%
    12:00 +32°C° 0,1 mm 5 m/s 752 mmHg 44%
    13:00 +33°C° 0,1 mm 5 m/s 752 mmHg 43%
    14:00 +32°C° 0,1 mm 5 m/s 752 mmHg 43%
    15:00 +32°C° 0,1 mm 5 m/s 751 mmHg 43%
    16:00 +32°C° 0,1 mm 5 m/s 751 mmHg 43%
    17:00 +29°C° 0,1 mm 5 m/s 752 mmHg 49%
    18:00 +27°C° 0,1 mm 4 m/s 752 mmHg 54%
    19:00 +26°C° 0,1 mm 3 m/s 752 mmHg 60%
    20:00 +25°C° 0,7 mm 3 m/s 753 mmHg 64%
    21:00 +23°C° 0,7 mm 2 m/s 753 mmHg 69%
    22:00 +21°C° 0,7 mm 2 m/s 753 mmHg 74%
    23:00 +21°C° 0,4 mm 2 m/s 753 mmHg 75%

    Poimâine, 27 Iulie, Joi

    Timp Temperatura Precipitaţii Vânt Presiune Umiditate
    00:00 +21°C° 0,4 mm 2 m/s 754 mmHg 76%
    01:00 +21°C° 0,4 mm 2 m/s 754 mmHg 77%
    02:00 +20°C° 0 mm 2 m/s 754 mmHg 78%
    03:00 +20°C° 0 mm 2 m/s 754 mmHg 79%
    04:00 +20°C° 0 mm 2 m/s 754 mmHg 80%
    05:00 +21°C° 0 mm 2 m/s 754 mmHg 75%
    06:00 +24°C° 0 mm 2 m/s 754 mmHg 70%
    07:00 +25°C° 0 mm 2 m/s 754 mmHg 64%
    08:00 +27°C° 0 mm 2 m/s 755 mmHg 59%
    09:00 +28°C° 0 mm 3 m/s 755 mmHg 53%
    10:00 +30°C° 0 mm 4 m/s 755 mmHg 47%
    11:00 +30°C° 0,1 mm 5 m/s 755 mmHg 45%
    12:00 +32°C° 0,1 mm 5 m/s 755 mmHg 43%
    13:00 +32°C° 0,1 mm 6 m/s 755 mmHg 42%
    14:00 +32°C° 0,1 mm 6 m/s 755 mmHg 43%
    15:00 +32°C° 0,1 mm 6 m/s 755 mmHg 44%
    16:00 +30°C° 0,1 mm 6 m/s 755 mmHg 45%
    17:00 +28°C° 0 mm 5 m/s 755 mmHg 52%
    18:00 +26°C° 0 mm 4 m/s 755 mmHg 59%
    19:00 +25°C° 0 mm 3 m/s 756 mmHg 66%
    20:00 +24°C° 0 mm 2 m/s 756 mmHg 70%
    21:00 +23°C° 0 mm 2 m/s 757 mmHg 74%
    22:00 +22°C° 0 mm 1 m/s 757 mmHg 78%
    23:00 +22°C° 0 mm 1 m/s 757 mmHg 77%

    28 Iulie, Vineri

    Timp Temperatura Precipitaţii Vânt Presiune Umiditate
    00:00 +21°C° 0 mm 1 m/s 757 mmHg 76%
    01:00 +21°C° 0 mm 1 m/s 757 mmHg 76%
    02:00 +21°C° 0 mm 1 m/s 757 mmHg 75%
    03:00 +20°C° 0 mm 2 m/s 758 mmHg 74%
    04:00 +20°C° 0 mm 2 m/s 758 mmHg 73%
    05:00 +23°C° 0 mm 2 m/s 758 mmHg 66%
    06:00 +25°C° 0 mm 1 m/s 758 mmHg 60%
    07:00 +27°C° 0 mm 1 m/s 758 mmHg 53%
    08:00 +28°C° 0 mm 2 m/s 759 mmHg 47%
    09:00 +30°C° 0 mm 2 m/s 759 mmHg 42%
    10:00 +32°C° 0 mm 2 m/s 759 mmHg 36%
    11:00 +34°C° 0 mm 3 m/s 759 mmHg 34%
    12:00 +34°C° 0 mm 3 m/s 759 mmHg 33%
    13:00 +35°C° 0 mm 4 m/s 758 mmHg 31%
    14:00 +35°C° 0 mm 4 m/s 758 mmHg 33%
    15:00 +35°C° 0 mm 4 m/s 758 mmHg 34%
    16:00 +34°C° 0 mm 4 m/s 758 mmHg 36%
    17:00 +31°C° 0 mm 3 m/s 759 mmHg 43%
    18:00 +29°C° 0 mm 2 m/s 759 mmHg 50%
    19:00 +26°C° 0 mm 2 m/s 759 mmHg 56%
    20:00 +25°C° 0 mm 1 m/s 760 mmHg 58%
    21:00 +25°C° 0 mm 1 m/s 760 mmHg 60%
    22:00 +24°C° 0 mm 1 m/s 760 mmHg 61%
    23:00 +24°C° 0 mm 1 m/s 760 mmHg 59%

    29 Iulie, Sâmbătă

    Timp Temperatura Precipitaţii Vânt Presiune Umiditate
    00:00 +23°C° 0 mm 1 m/s 760 mmHg 56%
    01:00 +23°C° 0 mm 1 m/s 760 mmHg 54%
    02:00 +23°C° 0 mm 1 m/s 761 mmHg 52%
    03:00 +23°C° 0 mm 2 m/s 761 mmHg 50%
    04:00 +23°C° 0 mm 2 m/s 761 mmHg 48%
    05:00 +25°C° 0 mm 2 m/s 761 mmHg 44%
    06:00 +27°C° 0 mm 2 m/s 761 mmHg 40%
    07:00 +29°C° 0 mm 2 m/s 761 mmHg 36%
    08:00 +31°C° 0 mm 2 m/s 761 mmHg 32%
    09:00 +34°C° 0 mm 2 m/s 761 mmHg 28%
    10:00 +37°C° 0 mm 2 m/s 761 mmHg 24%
    11:00 +37°C° 0 mm 2 m/s 761 mmHg 23%
    12:00 +38°C° 0 mm 3 m/s 761 mmHg 22%
    13:00 +38°C° 0 mm 4 m/s 761 mmHg 21%
    14:00 +38°C° 0 mm 4 m/s 761 mmHg 23%
    15:00 +38°C° 0 mm 4 m/s 760 mmHg 25%
    16:00 +37°C° 0 mm 4 m/s 760 mmHg 26%
    17:00 +35°C° 0 mm 4 m/s 760 mmHg 33%
    18:00 +31°C° 0 mm 3 m/s 761 mmHg 40%
    19:00 +28°C° 0 mm 2 m/s 761 mmHg 46%
    20:00 +28°C° 0 mm 2 m/s 761 mmHg 48%
    21:00 +27°C° 0 mm 2 m/s 761 mmHg 50%
    22:00 +26°C° 0 mm 2 m/s 761 mmHg 51%
    23:00 +26°C° 0 mm 1 m/s 761 mmHg 51%

    30 Iulie, Duminică

    Timp Temperatura Precipitaţii Vânt Presiune Umiditate
    00:00 +26°C° 0 mm 1 m/s 761 mmHg 51%
    01:00 +26°C° 0 mm 1 m/s 761 mmHg 51%
    02:00 +25°C° 0 mm 1 m/s 761 mmHg 50%
    03:00 +25°C° 0 mm 1 m/s 761 mmHg 50%
    04:00 +25°C° 0 mm 1 m/s 761 mmHg 50%
    05:00 +27°C° 0 mm 1 m/s 761 mmHg 47%
    06:00 +29°C° 0 mm 1 m/s 761 mmHg 43%
    07:00 +31°C° 0 mm 1 m/s 761 mmHg 39%
    08:00 +33°C° 0 mm 1 m/s 761 mmHg 35%
    09:00 +36°C° 0 mm 2 m/s 761 mmHg 31%
    10:00 +38°C° 0 mm 2 m/s 761 mmHg 27%
    11:00 +39°C° 0 mm 2 m/s 761 mmHg 26%
    12:00 +39°C° 0 mm 3 m/s 760 mmHg 26%
    13:00 +41°C° 0 mm 4 m/s 760 mmHg 25%
    14:00 +40°C° 0 mm 4 m/s 760 mmHg 26%
    15:00 +40°C° 0 mm 4 m/s 760 mmHg 28%
    16:00 +38°C° 0 mm 4 m/s 759 mmHg 30%
    17:00 +35°C° 0 mm 3 m/s 759 mmHg 35%
    18:00 +33°C° 0 mm 3 m/s 760 mmHg 40%
    19:00 +30°C° 0 mm 2 m/s 760 mmHg 46%
    20:00 +29°C° 0 mm 2 m/s 760 mmHg 47%
    21:00 +28°C° 0 mm 1 m/s 760 mmHg 48%
    22:00 +28°C° 0 mm 1 m/s 760 mmHg 49%
    23:00 +28°C° 0 mm 1 m/s 760 mmHg 49%
    Arată mai mult